| time (UTC) | temp F | wind direction | speed knots | gust knots | rain 1hr in | rain 24hr in | rain mn in | humidity % | barometer mb |
| 20260504180541 | 72 | 231 | 4.3 | 13.9 | 0.00 | 0.00 | 0.00 | 64 | 1005.2 |
| 20260504180131 | 72 | 243 | 2.6 | 13.9 | 0.00 | 0.00 | 0.00 | 66 | 1005.2 |
| 20260504175544 | 71 | 130 | 3.5 | 11.3 | 0.00 | 0.00 | 0.00 | 65 | 1005.2 |
| 20260504175040 | 70 | 180 | 1.7 | 5.2 | 0.00 | 0.00 | 0.00 | 70 | 1005.1 |
| 20260504174550 | 69 | 131 | 1.7 | 5.2 | 0.00 | 0.00 | 0.00 | 69 | 1005.3 |
| 20260504174040 | 68 | 231 | 1.7 | 4.3 | 0.00 | 0.00 | 0.00 | 72 | 1005.5 |
| 20260504173539 | 67 | 135 | 1.7 | 4.3 | 0.00 | 0.00 | 0.00 | 71 | 1005.5 |
| 20260504173050 | 66 | 0 | 0.9 | 7.0 | 0.00 | 0.00 | 0.00 | 70 | 1005.4 |
| 20260504172540 | 66 | 231 | 1.7 | 7.8 | 0.00 | 0.00 | 0.00 | 69 | 1005.5 |
| 20260504172040 | 65 | 246 | 1.7 | 7.8 | 0.00 | 0.00 | 0.00 | 69 | 1005.6 |
| 20260504171558 | 65 | 192 | 1.7 | 10.4 | 0.00 | 0.00 | 0.00 | 68 | 1005.1 |
| 20260504171041 | 65 | 164 | 3.5 | 10.4 | 0.00 | 0.00 | 0.00 | 68 | 1005.4 |
| 20260504170540 | 65 | 196 | 2.6 | 12.2 | 0.00 | 0.00 | 0.00 | 68 | 1005.5 |
| 20260504151039 | 64 | 167 | 1.7 | 7.0 | 0.00 | 0.00 | 0.00 | 74 | 1006.5 |
| 20260504150541 | 63 | 192 | 1.7 | 7.0 | 0.00 | 0.00 | 0.00 | 73 | 1006.6 |
| 20260504141039 | 63 | 207 | 3.5 | 7.8 | 0.00 | 0.00 | 0.00 | 70 | 1006.4 |
| 20260504140539 | 64 | 150 | 1.7 | 7.0 | 0.00 | 0.00 | 0.00 | 69 | 1006.9 |
| 20260504130540 | 63 | 200 | 2.6 | 8.7 | 0.00 | 0.00 | 0.00 | 73 | 1007.4 |
| 20260504120109 | 58 | 184 | 3.5 | 12.2 | 0.00 | 0.00 | 0.00 | 76 | 1007.6 |
| 20260504110540 | 56 | 182 | 1.7 | 5.2 | 0.00 | 0.00 | 0.00 | 81 | 1007.6 |
| 20260504100539 | 56 | 209 | 0.9 | 3.5 | 0.00 | 0.00 | 0.00 | 79 | 1008.5 |
| 20260504100114 | 56 | 210 | 0.9 | 2.6 | 0.00 | 0.00 | 0.00 | 79 | 1008.4 |
| 20260504081545 | 55 | 0 | 0.0 | 0.0 | 0.00 | 0.00 | 0.00 | 83 | 1007.9 |
| 20260504081039 | 55 | 0 | 0.0 | 0.0 | 0.00 | 0.00 | 0.00 | 83 | 1008.0 |
| 20260504080539 | 55 | 0 | 0.0 | 0.0 | 0.00 | 0.00 | 0.00 | 83 | 1008.0 |
| 20260504050539 | 58 | 0 | 0.0 | 3.5 | 0.00 | 0.00 | 0.00 | 79 | 1009.8 |
| 20260504045539 | 58 | 256 | 0.9 | 3.5 | 0.00 | 0.00 | 0.00 | 77 | 1009.2 |
| 20260504045038 | 59 | 313 | 0.9 | 2.6 | 0.00 | 0.00 | 0.00 | 76 | 1009.0 |
| 20260504044546 | 59 | 0 | 0.0 | 0.0 | 0.00 | 0.00 | 0.00 | 76 | 1008.9 |
| 20260504044043 | 59 | 0 | 0.0 | 0.0 | 0.00 | 0.00 | 0.00 | 75 | 1008.9 |
| 20260504043539 | 60 | 0 | 0.0 | 0.0 | 0.00 | 0.00 | 0.00 | 72 | 1008.8 |
| 20260504043059 | 60 | 0 | 0.0 | 0.0 | 0.00 | 0.00 | 0.00 | 72 | 1008.7 |
| 20260504042540 | 60 | 0 | 0.0 | 0.0 | 0.00 | 0.00 | 0.00 | 72 | 1008.6 |
| 20260504042040 | 60 | 0 | 0.0 | 0.0 | 0.00 | 0.00 | 0.00 | 72 | 1008.6 |
| 20260504041545 | 60 | 0 | 0.0 | 0.9 | 0.00 | 0.00 | 0.00 | 71 | 1008.7 |
| 20260504041038 | 60 | 0 | 0.0 | 0.9 | 0.00 | 0.00 | 0.00 | 71 | 1008.9 |
| 20260504040539 | 60 | 0 | 0.0 | 5.2 | 0.00 | 0.00 | 0.00 | 71 | 1009.0 |
| 20260504040103 | 60 | 0 | 0.0 | 5.2 | 0.00 | 0.00 | 0.00 | 73 | 1009.1 |
| 20260504035539 | 60 | 252 | 1.7 | 5.2 | 0.00 | 0.00 | 0.00 | 72 | 1009.5 |
| 20260504035042 | 61 | 126 | 0.9 | 3.5 | 0.00 | 0.00 | 0.00 | 71 | 1009.3 |
| 20260504034558 | 61 | 0 | 0.0 | 0.0 | 0.00 | 0.00 | 0.00 | 71 | 1009.7 |
| 20260504034039 | 61 | 0 | 0.0 | 3.5 | 0.00 | 0.00 | 0.00 | 71 | 1009.8 |
| 20260504033543 | 61 | 0 | 0.0 | 3.5 | 0.00 | 0.00 | 0.00 | 71 | 1010.0 |
| 20260504033053 | 62 | 198 | 0.9 | 3.5 | 0.00 | 0.00 | 0.00 | 70 | 1010.1 |
| 20260504032539 | 61 | 0 | 0.0 | 0.0 | 0.00 | 0.00 | 0.00 | 69 | 1009.9 |
| 20260504032043 | 61 | 0 | 0.0 | 0.0 | 0.00 | 0.00 | 0.00 | 70 | 1009.8 |
| 20260504031546 | 61 | 0 | 0.0 | 1.7 | 0.00 | 0.00 | 0.00 | 70 | 1009.8 |
| 20260504031039 | 61 | 0 | 0.0 | 2.6 | 0.00 | 0.00 | 0.00 | 70 | 1009.8 |
| 20260504030539 | 61 | 340 | 0.9 | 2.6 | 0.00 | 0.00 | 0.00 | 71 | 1009.9 |
| 20260504030050 | 61 | 340 | 1.7 | 3.5 | 0.00 | 0.00 | 0.00 | 72 | 1009.8 |
| 20260504025541 | 62 | 0 | 0.9 | 3.5 | 0.00 | 0.00 | 0.00 | 72 | 1009.7 |
| 20260504025039 | 62 | 351 | 1.7 | 3.5 | 0.00 | 0.00 | 0.00 | 71 | 1009.6 |
| 20260504024548 | 62 | 313 | 0.9 | 3.5 | 0.00 | 0.00 | 0.00 | 71 | 1009.5 |
| 20260504024039 | 63 | 315 | 0.9 | 2.6 | 0.00 | 0.00 | 0.00 | 70 | 1009.6 |
| 20260504023540 | 63 | 0 | 0.0 | 0.0 | 0.00 | 0.00 | 0.00 | 69 | 1009.4 |
| 20260504023047 | 64 | 0 | 0.0 | 0.0 | 0.00 | 0.00 | 0.00 | 68 | 1009.4 |
| 20260504022538 | 64 | 0 | 0.0 | 0.0 | 0.00 | 0.00 | 0.00 | 67 | 1009.3 |
| 20260504022040 | 65 | 0 | 0.0 | 0.0 | 0.00 | 0.00 | 0.00 | 63 | 1009.3 |
| 20260504021547 | 66 | 0 | 0.0 | 0.0 | 0.00 | 0.00 | 0.00 | 62 | 1009.2 |
| 20260504021038 | 66 | 0 | 0.0 | 0.0 | 0.00 | 0.00 | 0.00 | 62 | 1009.2 |
| 20260504020539 | 66 | 0 | 0.0 | 0.0 | 0.00 | 0.00 | 0.00 | 62 | 1009.2 |
| 20260504015539 | 67 | 0 | 0.0 | 0.0 | 0.00 | 0.00 | 0.00 | 62 | 1009.2 |
| 20260504015039 | 67 | 0 | 0.0 | 0.0 | 0.00 | 0.00 | 0.00 | 61 | 1009.2 |
| 20260504014551 | 68 | 0 | 0.0 | 0.0 | 0.00 | 0.00 | 0.00 | 59 | 1009.3 |
| 20260504014040 | 68 | 0 | 0.0 | 0.0 | 0.00 | 0.00 | 0.00 | 58 | 1009.2 |
| 20260504013539 | 69 | 0 | 0.0 | 0.0 | 0.00 | 0.00 | 0.00 | 57 | 1009.2 |
| 20260504013050 | 70 | 0 | 0.0 | 0.0 | 0.00 | 0.00 | 0.00 | 55 | 1009.1 |
| 20260504012541 | 70 | 0 | 0.0 | 0.0 | 0.00 | 0.00 | 0.00 | 54 | 1009.2 |
| 20260504012041 | 71 | 0 | 0.0 | 0.0 | 0.00 | 0.00 | 0.00 | 53 | 1009.1 |
| 20260504011548 | 71 | 0 | 0.0 | 0.0 | 0.00 | 0.00 | 0.00 | 51 | 1009.0 |
| 20260504011038 | 72 | 0 | 0.0 | 0.9 | 0.00 | 0.00 | 0.00 | 50 | 1009.1 |
| 20260504010539 | 72 | 0 | 0.0 | 1.7 | 0.00 | 0.00 | 0.00 | 49 | 1009.0 |
| 20260504010047 | 72 | 0 | 0.0 | 1.7 | 0.00 | 0.00 | 0.00 | 49 | 1009.0 |
| 20260504005539 | 73 | 0 | 0.0 | 2.6 | 0.00 | 0.00 | 0.00 | 49 | 1009.0 |
| 20260504005039 | 73 | 0 | 0.0 | 2.6 | 0.00 | 0.00 | 0.00 | 48 | 1009.0 |
| 20260504004546 | 73 | 219 | 0.0 | 2.6 | 0.00 | 0.00 | 0.00 | 48 | 1008.9 |
| 20260504004039 | 73 | 219 | 0.9 | 2.6 | 0.00 | 0.00 | 0.00 | 47 | 1008.9 |
| 20260504003538 | 74 | 207 | 0.0 | 2.6 | 0.00 | 0.00 | 0.00 | 47 | 1008.9 |
| 20260504003047 | 74 | 207 | 0.9 | 4.3 | 0.00 | 0.00 | 0.00 | 47 | 1008.9 |
| 20260504002538 | 74 | 223 | 0.9 | 4.3 | 0.00 | 0.00 | 0.00 | 47 | 1009.0 |
| 20260504002038 | 74 | 228 | 0.9 | 4.3 | 0.00 | 0.00 | 0.00 | 47 | 1008.9 |
| 20260504001550 | 74 | 194 | 0.9 | 3.5 | 0.00 | 0.00 | 0.00 | 48 | 1009.0 |
| 20260504001038 | 74 | 227 | 0.9 | 3.5 | 0.00 | 0.00 | 0.00 | 46 | 1009.0 |
| 20260504000542 | 74 | 0 | 1.7 | 3.5 | 0.00 | 0.00 | 0.00 | 45 | 1009.0 |
| 20260504000057 | 74 | 251 | 0.9 | 3.5 | 0.00 | 0.00 | 0.00 | 45 | 1009.1 |
| 20260503235539 | 75 | 0 | 0.9 | 5.2 | 0.00 | 0.00 | 0.00 | 44 | 1009.2 |
| 20260503235039 | 75 | 263 | 0.9 | 7.0 | 0.00 | 0.00 | 0.00 | 45 | 1009.0 |
| 20260503234545 | 75 | 244 | 2.6 | 7.0 | 0.00 | 0.00 | 0.00 | 44 | 1009.1 |
| 20260503234042 | 75 | 221 | 2.6 | 7.8 | 0.00 | 0.00 | 0.00 | 43 | 1009.1 |
| 20260503233540 | 75 | 223 | 2.6 | 10.4 | 0.00 | 0.00 | 0.00 | 42 | 1009.0 |
| 20260503233046 | 75 | 236 | 2.6 | 10.4 | 0.00 | 0.00 | 0.00 | 42 | 1009.0 |
| 20260503232538 | 75 | 269 | 3.5 | 9.6 | 0.00 | 0.00 | 0.00 | 42 | 1009.0 |
| 20260503232038 | 75 | 223 | 2.6 | 12.2 | 0.00 | 0.00 | 0.00 | 42 | 1009.1 |
| 20260503231550 | 75 | 206 | 2.6 | 12.2 | 0.00 | 0.00 | 0.00 | 41 | 1009.2 |
| 20260503231039 | 75 | 197 | 6.1 | 12.2 | 0.00 | 0.00 | 0.00 | 41 | 1009.1 |
| 20260503230539 | 76 | 241 | 5.2 | 12.2 | 0.00 | 0.00 | 0.00 | 40 | 1009.0 |
| 20260503225539 | 76 | 245 | 2.6 | 8.7 | 0.00 | 0.00 | 0.00 | 40 | 1009.2 |
| 20260503225039 | 76 | 189 | 4.3 | 8.7 | 0.00 | 0.00 | 0.00 | 39 | 1009.2 |
| 20260503224550 | 76 | 233 | 4.3 | 12.2 | 0.00 | 0.00 | 0.00 | 39 | 1009.2 |
| 20260503224038 | 76 | 247 | 4.3 | 12.2 | 0.00 | 0.00 | 0.00 | 40 | 1009.3 |
| 20260503223538 | 76 | 250 | 5.2 | 13.0 | 0.00 | 0.00 | 0.00 | 40 | 1009.3 |
| 20260503223048 | 76 | 207 | 7.0 | 16.5 | 0.00 | 0.00 | 0.00 | 40 | 1009.2 |
| 20260503222537 | 76 | 248 | 6.1 | 16.5 | 0.00 | 0.00 | 0.00 | 38 | 1009.2 |
| 20260503222042 | 76 | 245 | 6.1 | 15.6 | 0.00 | 0.00 | 0.00 | 38 | 1009.2 |
| 20260503221551 | 77 | 255 | 7.0 | 13.9 | 0.00 | 0.00 | 0.00 | 39 | 1009.2 |
| 20260503221039 | 77 | 266 | 5.2 | 13.9 | 0.00 | 0.00 | 0.00 | 39 | 1009.4 |
| 20260503220539 | 76 | 222 | 3.5 | 16.5 | 0.00 | 0.00 | 0.00 | 39 | 1009.4 |
| 20260503220046 | 77 | 217 | 6.1 | 16.5 | 0.00 | 0.00 | 0.00 | 38 | 1009.4 |
| 20260503215538 | 77 | 232 | 6.1 | 16.5 | 0.00 | 0.00 | 0.00 | 37 | 1009.5 |
| 20260503215038 | 77 | 247 | 4.3 | 13.9 | 0.00 | 0.00 | 0.00 | 37 | 1009.6 |
| 20260503214549 | 77 | 242 | 7.0 | 15.6 | 0.00 | 0.00 | 0.00 | 38 | 1009.7 |
| 20260503214039 | 77 | 236 | 4.3 | 15.6 | 0.00 | 0.00 | 0.00 | 37 | 1009.8 |
| 20260503213539 | 77 | 200 | 7.0 | 15.6 | 0.00 | 0.00 | 0.00 | 37 | 1009.7 |
| 20260503213059 | 77 | 247 | 5.2 | 18.2 | 0.00 | 0.00 | 0.00 | 38 | 1009.7 |
| 20260503212538 | 77 | 201 | 7.8 | 18.2 | 0.00 | 0.00 | 0.00 | 37 | 1009.8 |
| 20260503212039 | 77 | 180 | 7.0 | 15.6 | 0.00 | 0.00 | 0.00 | 37 | 1009.9 |
| 20260503211610 | 77 | 225 | 7.0 | 17.4 | 0.00 | 0.00 | 0.00 | 36 | 1009.9 |
| 20260503211039 | 77 | 211 | 8.7 | 17.4 | 0.00 | 0.00 | 0.00 | 36 | 1010.1 |
| 20260503210540 | 77 | 217 | 5.2 | 15.6 | 0.00 | 0.00 | 0.00 | 37 | 1010.0 |
| 20260503210047 | 77 | 360 | 4.3 | 14.8 | 0.00 | 0.00 | 0.00 | 39 | 1010.1 |
| 20260503205539 | 77 | 262 | 4.3 | 14.8 | 0.00 | 0.00 | 0.00 | 39 | 1010.3 |
| 20260503205039 | 77 | 182 | 5.2 | 14.8 | 0.00 | 0.00 | 0.00 | 38 | 1010.4 |
| 20260503204549 | 76 | 340 | 4.3 | 14.8 | 0.00 | 0.00 | 0.00 | 42 | 1010.6 |
| 20260503204039 | 76 | 163 | 5.2 | 19.1 | 0.00 | 0.00 | 0.00 | 40 | 1010.6 |
| 20260503203538 | 76 | 198 | 7.0 | 19.1 | 0.00 | 0.00 | 0.00 | 37 | 1010.7 |
| 20260503203052 | 76 | 165 | 5.2 | 15.6 | 0.00 | 0.00 | 0.00 | 39 | 1010.7 |
| 20260503202536 | 76 | 198 | 4.3 | 13.9 | 0.00 | 0.00 | 0.00 | 39 | 1010.8 |
| 20260503202036 | 76 | 183 | 5.2 | 14.8 | 0.00 | 0.00 | 0.00 | 41 | 1010.8 |
| 20260503201551 | 75 | 107 | 6.1 | 17.4 | 0.00 | 0.00 | 0.00 | 41 | 1010.9 |
| 20260503201041 | 75 | 174 | 6.1 | 17.4 | 0.00 | 0.00 | 0.00 | 39 | 1010.9 |
| 20260503200536 | 75 | 144 | 6.1 | 15.6 | 0.00 | 0.00 | 0.00 | 41 | 1011.0 |
| 20260503200058 | 75 | 225 | 7.0 | 15.6 | 0.00 | 0.00 | 0.00 | 40 | 1011.1 |
| 20260503195536 | 75 | 160 | 3.5 | 14.8 | 0.00 | 0.00 | 0.00 | 40 | 1011.1 |
| 20260503195036 | 74 | 194 | 7.0 | 14.8 | 0.00 | 0.00 | 0.00 | 42 | 1011.1 |
| 20260503194558 | 74 | 200 | 7.0 | 13.9 | 0.00 | 0.00 | 0.00 | 40 | 1011.3 |
| 20260503194039 | 74 | 157 | 4.3 | 17.4 | 0.00 | 0.00 | 0.00 | 42 | 1011.3 |
| 20260503193539 | 74 | 187 | 7.8 | 17.4 | 0.00 | 0.00 | 0.00 | 39 | 1011.5 |
| 20260503193058 | 74 | 178 | 5.2 | 13.9 | 0.00 | 0.00 | 0.00 | 41 | 1011.6 |
| 20260503192541 | 73 | 208 | 4.3 | 20.0 | 0.00 | 0.00 | 0.00 | 39 | 1011.8 |
| 20260503192039 | 73 | 141 | 6.1 | 20.0 | 0.00 | 0.00 | 0.00 | 39 | 1011.8 |
| 20260503191602 | 73 | 117 | 7.0 | 17.4 | 0.00 | 0.00 | 0.00 | 40 | 1011.9 |
| 20260503191038 | 73 | 203 | 7.0 | 17.4 | 0.00 | 0.00 | 0.00 | 39 | 1012.0 |
| 20260503190539 | 73 | 225 | 7.0 | 15.6 | 0.00 | 0.00 | 0.00 | 40 | 1012.2 |
| 20260503190051 | 72 | 192 | 4.3 | 16.5 | 0.00 | 0.00 | 0.00 | 43 | 1012.2 |
| 20260503185538 | 72 | 192 | 4.3 | 16.5 | 0.00 | 0.00 | 0.00 | 41 | 1012.4 |
| 20260503185039 | 72 | 221 | 5.2 | 18.2 | 0.00 | 0.00 | 0.00 | 41 | 1012.6 |
| 20260503184601 | 71 | 156 | 7.8 | 18.2 | 0.00 | 0.00 | 0.00 | 40 | 1012.7 |
| 20260503184039 | 71 | 155 | 7.0 | 17.4 | 0.00 | 0.00 | 0.00 | 40 | 1012.7 |
| 20260503183539 | 71 | 207 | 7.0 | 14.8 | 0.00 | 0.00 | 0.00 | 42 | 1012.8 |
| 20260503183047 | 71 | 169 | 5.2 | 17.4 | 0.00 | 0.00 | 0.00 | 42 | 1013.0 |
| 20260503182540 | 71 | 148 | 6.1 | 17.4 | 0.00 | 0.00 | 0.00 | 45 | 1013.1 |
| 20260503182038 | 71 | 157 | 4.3 | 17.4 | 0.00 | 0.00 | 0.00 | 43 | 1013.1 |
| 20260503181610 | 70 | 253 | 7.0 | 17.4 | 0.00 | 0.00 | 0.00 | 44 | 1013.3 |
| 20260503181039 | 70 | 192 | 2.6 | 16.5 | 0.00 | 0.00 | 0.00 | 46 | 1013.5 |